ONEWEB-0210 (48787 NORAD) Tracking and Keplerian Element Data

This shows tracking and keplerian element data for the satellite.

Feedback or suggestion? Click here.




ElementValue
Catalog48787
NameONEWEB-0210
Epoch Orbit186
Epoch Day170.58334491
Epoch Year2021
RAAN268.8778
Inclination87.4066
Eccentricity0.0009649
Argument of Perigee164.3489
Mean Anonmoly255.7671
Mean Motion15.32026604
Decay Rate-0.00887737
L11 48787U 21045W 21170.58334491 -.00887737 00000-0 -31233-1 0 9999
L22 48787 87.4066 268.8778 0009649 164.3489 255.7671 15.32026604 1863

Live tracking and technical data element details for ONEWEB-0210 (NORAD 48787). ONEWEB-0210 can be tracked NOW for your location showing map with azimuth and elevation plus other details from your city location.

Track the satellite on the map from your city or location and see movement details for azimuth, elevation, latitude, longitude, range, height, and movement on the map or in text.







IsCatalogInMostPopularTable: catalog: 48787, numindb: 6
Update: records affected: 1



GetName: 48787 ONEWEB-0210

Hit Count: updated at: Mon, 21 Jun 2021 03:28:19 GMT